Torna al catalogo

PRATHAM

AttivoScienzaSSO
NORAD 41783·PAYLOAD·🇮🇳 India

Lanciato Sep 26, 2016 da Satish Dhawan Space Centre

Loading…

Prossimi Passaggi (prossime 24 ore)

TLE

AggiornatoSource: Space-Track

Epoca: Sep 14, 2026, 10:39 UTC

1 41783U 16059A   26257.44402367  .00000464  00000-0  90167-4 0  9997
2 41783  97.8402 250.4179 0029848 295.7407  64.0718 14.67295421532601

Traccia PRATHAM in tempo reale con AllMySat

Download on the App Store